| time (UTC) | temp F | wind direction | speed knots | gust knots | rain 1hr in | rain 24hr in | rain mn in | humidity % | barometer mb |
| 20260510232526 | 76 | 141 | 2.6 | 11.3 | 0.00 | 0.00 | 0.00 | 27 | 1016.0 |
| 20260510232026 | 76 | 147 | 3.5 | 12.2 | 0.00 | 0.00 | 0.00 | 26 | 1016.1 |
| 20260510231539 | 77 | 175 | 6.1 | 12.2 | 0.00 | 0.00 | 0.00 | 24 | 1016.1 |
| 20260510231026 | 77 | 83 | 3.5 | 10.4 | 0.00 | 0.00 | 0.00 | 25 | 1016.1 |
| 20260510230525 | 77 | 156 | 2.6 | 10.4 | 0.00 | 0.00 | 0.00 | 24 | 1016.1 |
| 20260510230036 | 77 | 148 | 6.1 | 10.4 | 0.00 | 0.00 | 0.00 | 26 | 1016.3 |
| 20260510225527 | 76 | 195 | 5.2 | 9.6 | 0.00 | 0.00 | 0.00 | 25 | 1016.2 |
| 20260510225030 | 76 | 141 | 3.5 | 9.6 | 0.00 | 0.00 | 0.00 | 27 | 1016.3 |
| 20260510224543 | 76 | 173 | 3.5 | 18.2 | 0.00 | 0.00 | 0.00 | 26 | 1016.3 |
| 20260510224025 | 76 | 94 | 6.1 | 18.2 | 0.00 | 0.00 | 0.00 | 26 | 1016.3 |
| 20260510223523 | 76 | 186 | 6.1 | 18.2 | 0.00 | 0.00 | 0.00 | 29 | 1016.4 |
| 20260510223040 | 76 | 114 | 4.3 | 9.6 | 0.00 | 0.00 | 0.00 | 26 | 1016.5 |
| 20260510222522 | 76 | 152 | 2.6 | 8.7 | 0.00 | 0.00 | 0.00 | 28 | 1016.6 |
| 20260510222023 | 76 | 146 | 4.3 | 9.6 | 0.00 | 0.00 | 0.00 | 27 | 1016.6 |
| 20260510221539 | 76 | 91 | 5.2 | 9.6 | 0.00 | 0.00 | 0.00 | 26 | 1016.7 |
| 20260510221023 | 75 | 63 | 2.6 | 12.2 | 0.00 | 0.00 | 0.00 | 27 | 1016.6 |
| 20260510220523 | 75 | 57 | 5.2 | 12.2 | 0.00 | 0.00 | 0.00 | 26 | 1016.7 |
| 20260510220038 | 75 | 198 | 5.2 | 11.3 | 0.00 | 0.00 | 0.00 | 25 | 1016.7 |
| 20260510215523 | 76 | 96 | 4.3 | 9.6 | 0.00 | 0.00 | 0.00 | 28 | 1016.8 |
| 20260510215022 | 76 | 121 | 6.1 | 9.6 | 0.00 | 0.00 | 0.00 | 29 | 1017.0 |
| 20260510214538 | 76 | 137 | 3.5 | 8.7 | 0.00 | 0.00 | 0.00 | 29 | 1017.1 |
| 20260510214023 | 75 | 136 | 3.5 | 8.7 | 0.00 | 0.00 | 0.00 | 27 | 1017.1 |
| 20260510213525 | 75 | 142 | 5.2 | 8.7 | 0.00 | 0.00 | 0.00 | 28 | 1017.2 |
| 20260510213041 | 75 | 202 | 3.5 | 7.0 | 0.00 | 0.00 | 0.00 | 29 | 1017.4 |
| 20260510212522 | 74 | 135 | 2.6 | 8.7 | 0.00 | 0.00 | 0.00 | 28 | 1017.4 |
| 20260510212026 | 74 | 143 | 2.6 | 9.6 | 0.00 | 0.00 | 0.00 | 29 | 1017.6 |
| 20260510211542 | 74 | 181 | 3.5 | 9.6 | 0.00 | 0.00 | 0.00 | 27 | 1017.6 |
| 20260510211023 | 74 | 160 | 4.3 | 10.4 | 0.00 | 0.00 | 0.00 | 29 | 1017.7 |
| 20260510210522 | 74 | 113 | 6.1 | 10.4 | 0.00 | 0.00 | 0.00 | 28 | 1017.7 |
| 20260510210037 | 74 | 109 | 4.3 | 13.0 | 0.00 | 0.00 | 0.00 | 29 | 1017.7 |
| 20260510205524 | 73 | 86 | 2.6 | 13.0 | 0.00 | 0.00 | 0.00 | 29 | 1017.7 |
| 20260510205023 | 73 | 122 | 5.2 | 9.6 | 0.00 | 0.00 | 0.00 | 33 | 1017.9 |
| 20260510204546 | 73 | 77 | 1.7 | 10.4 | 0.00 | 0.00 | 0.00 | 31 | 1017.8 |
| 20260510204023 | 73 | 140 | 5.2 | 10.4 | 0.00 | 0.00 | 0.00 | 33 | 1017.9 |
| 20260510203523 | 73 | 115 | 4.3 | 8.7 | 0.00 | 0.00 | 0.00 | 32 | 1017.9 |
| 20260510203037 | 73 | 154 | 4.3 | 8.7 | 0.00 | 0.00 | 0.00 | 32 | 1018.0 |
| 20260510202523 | 72 | 190 | 1.7 | 8.7 | 0.00 | 0.00 | 0.00 | 30 | 1018.1 |
| 20260510202022 | 72 | 199 | 5.2 | 13.0 | 0.00 | 0.00 | 0.00 | 31 | 1018.2 |
| 20260510201535 | 72 | 175 | 5.2 | 13.0 | 0.00 | 0.00 | 0.00 | 34 | 1018.2 |
| 20260510201024 | 71 | 112 | 3.5 | 10.4 | 0.00 | 0.00 | 0.00 | 37 | 1018.2 |
| 20260510200525 | 71 | 196 | 4.3 | 10.4 | 0.00 | 0.00 | 0.00 | 33 | 1018.4 |
| 20260510200038 | 70 | 85 | 2.6 | 10.4 | 0.00 | 0.00 | 0.00 | 34 | 1018.4 |
| 20260510195522 | 71 | 242 | 4.3 | 9.6 | 0.00 | 0.00 | 0.00 | 37 | 1018.5 |
| 20260510195022 | 70 | 147 | 1.7 | 13.0 | 0.00 | 0.00 | 0.00 | 32 | 1018.5 |
| 20260510194536 | 70 | 103 | 2.6 | 13.0 | 0.00 | 0.00 | 0.00 | 38 | 1018.7 |
| 20260510194028 | 70 | 174 | 5.2 | 9.6 | 0.00 | 0.00 | 0.00 | 34 | 1018.7 |
| 20260510193527 | 69 | 222 | 3.5 | 13.0 | 0.00 | 0.00 | 0.00 | 36 | 1018.7 |
| 20260510193036 | 70 | 150 | 6.1 | 13.0 | 0.00 | 0.00 | 0.00 | 34 | 1018.8 |
| 20260510192526 | 70 | 113 | 1.7 | 13.0 | 0.00 | 0.00 | 0.00 | 35 | 1019.1 |
| 20260510192026 | 70 | 200 | 6.1 | 13.0 | 0.00 | 0.00 | 0.00 | 36 | 1019.2 |
| 20260510191548 | 70 | 137 | 6.1 | 13.0 | 0.00 | 0.00 | 0.00 | 34 | 1019.3 |
| 20260510191027 | 70 | 172 | 2.6 | 10.4 | 0.00 | 0.00 | 0.00 | 32 | 1019.2 |
| 20260510190531 | 70 | 87 | 3.5 | 11.3 | 0.00 | 0.00 | 0.00 | 35 | 1019.4 |
| 20260510190041 | 70 | 122 | 6.1 | 11.3 | 0.00 | 0.00 | 0.00 | 36 | 1019.4 |
| 20260510185526 | 70 | 185 | 2.6 | 9.6 | 0.00 | 0.00 | 0.00 | 34 | 1019.5 |
| 20260510185029 | 69 | 94 | 4.3 | 8.7 | 0.00 | 0.00 | 0.00 | 37 | 1019.7 |
| 20260510184540 | 69 | 105 | 3.5 | 9.6 | 0.00 | 0.00 | 0.00 | 36 | 1019.8 |
| 20260510184027 | 68 | 193 | 4.3 | 9.6 | 0.00 | 0.00 | 0.00 | 37 | 1019.8 |
| 20260510183526 | 68 | 98 | 5.2 | 13.0 | 0.00 | 0.00 | 0.00 | 36 | 1020.0 |
| 20260510183043 | 68 | 23 | 6.1 | 13.0 | 0.00 | 0.00 | 0.00 | 35 | 1020.1 |
| 20260510182528 | 68 | 127 | 4.3 | 11.3 | 0.00 | 0.00 | 0.00 | 37 | 1020.1 |
| 20260510182026 | 68 | 202 | 5.2 | 11.3 | 0.00 | 0.00 | 0.00 | 40 | 1020.2 |
| 20260510181545 | 68 | 181 | 5.2 | 9.6 | 0.00 | 0.00 | 0.00 | 39 | 1020.3 |
| 20260510181028 | 68 | 127 | 4.3 | 12.2 | 0.00 | 0.00 | 0.00 | 39 | 1020.4 |
| 20260510180528 | 67 | 124 | 5.2 | 12.2 | 0.00 | 0.00 | 0.00 | 40 | 1020.5 |
| 20260510180041 | 66 | 140 | 4.3 | 10.4 | 0.00 | 0.00 | 0.00 | 40 | 1020.6 |
| 20260510175526 | 66 | 199 | 5.2 | 10.4 | 0.00 | 0.00 | 0.00 | 42 | 1020.6 |
| 20260510175027 | 66 | 148 | 4.3 | 12.2 | 0.00 | 0.00 | 0.00 | 43 | 1020.7 |
| 20260510174541 | 66 | 170 | 4.3 | 12.2 | 0.00 | 0.00 | 0.00 | 42 | 1020.7 |
| 20260510174027 | 66 | 212 | 3.5 | 12.2 | 0.00 | 0.00 | 0.00 | 44 | 1020.7 |
| 20260510173526 | 65 | 186 | 5.2 | 13.0 | 0.00 | 0.00 | 0.00 | 44 | 1020.7 |
| 20260510173043 | 65 | 131 | 4.3 | 13.0 | 0.00 | 0.00 | 0.00 | 42 | 1020.8 |
| 20260510172525 | 65 | 111 | 4.3 | 9.6 | 0.00 | 0.00 | 0.00 | 44 | 1020.7 |
| 20260510172026 | 65 | 152 | 3.5 | 11.3 | 0.00 | 0.00 | 0.00 | 47 | 1020.8 |
| 20260510171537 | 64 | 141 | 4.3 | 11.3 | 0.00 | 0.00 | 0.00 | 49 | 1020.9 |
| 20260510171026 | 64 | 103 | 5.2 | 10.4 | 0.00 | 0.00 | 0.00 | 49 | 1021.0 |
| 20260510170526 | 63 | 162 | 6.1 | 10.4 | 0.00 | 0.00 | 0.00 | 48 | 1021.0 |
| 20260510170037 | 63 | 88 | 5.2 | 9.6 | 0.00 | 0.00 | 0.00 | 49 | 1020.9 |
| 20260510165526 | 63 | 127 | 5.2 | 10.4 | 0.00 | 0.00 | 0.00 | 48 | 1021.1 |
| 20260510165027 | 63 | 82 | 5.2 | 10.4 | 0.00 | 0.00 | 0.00 | 48 | 1021.1 |
| 20260510164553 | 62 | 70 | 5.2 | 12.2 | 0.00 | 0.00 | 0.00 | 50 | 1021.2 |
| 20260510164025 | 62 | 73 | 6.1 | 12.2 | 0.00 | 0.00 | 0.00 | 50 | 1021.3 |
| 20260510163526 | 62 | 115 | 4.3 | 11.3 | 0.00 | 0.00 | 0.00 | 51 | 1021.3 |
| 20260510163045 | 62 | 193 | 6.1 | 11.3 | 0.00 | 0.00 | 0.00 | 51 | 1021.4 |
| 20260510162526 | 62 | 151 | 7.0 | 11.3 | 0.00 | 0.00 | 0.00 | 50 | 1021.5 |
| 20260510162031 | 61 | 117 | 6.1 | 10.4 | 0.00 | 0.00 | 0.00 | 52 | 1021.5 |
| 20260510161536 | 61 | 140 | 6.1 | 11.3 | 0.00 | 0.00 | 0.00 | 52 | 1021.6 |
| 20260510161026 | 61 | 152 | 4.3 | 11.3 | 0.00 | 0.00 | 0.00 | 53 | 1021.6 |
| 20260510160526 | 61 | 116 | 4.3 | 9.6 | 0.00 | 0.00 | 0.00 | 54 | 1021.6 |
| 20260510160040 | 60 | 205 | 4.3 | 8.7 | 0.00 | 0.00 | 0.00 | 54 | 1021.6 |
| 20260510155526 | 60 | 146 | 4.3 | 8.7 | 0.00 | 0.00 | 0.00 | 57 | 1021.6 |
| 20260510155027 | 60 | 122 | 3.5 | 8.7 | 0.00 | 0.00 | 0.00 | 53 | 1021.7 |
| 20260510154538 | 59 | 138 | 3.5 | 7.8 | 0.00 | 0.00 | 0.00 | 54 | 1021.8 |
| 20260510154025 | 59 | 126 | 2.6 | 7.8 | 0.00 | 0.00 | 0.00 | 56 | 1021.6 |
| 20260510153525 | 58 | 154 | 3.5 | 7.8 | 0.00 | 0.00 | 0.00 | 60 | 1021.7 |
| 20260510153045 | 57 | 92 | 2.6 | 6.1 | 0.00 | 0.00 | 0.00 | 61 | 1021.7 |
| 20260510152524 | 56 | 51 | 1.7 | 5.2 | 0.00 | 0.00 | 0.00 | 63 | 1021.8 |
| 20260510152024 | 56 | 0 | 2.6 | 4.3 | 0.00 | 0.00 | 0.00 | 65 | 1021.8 |
| 20260510151537 | 55 | 37 | 1.7 | 4.3 | 0.00 | 0.00 | 0.00 | 65 | 1021.9 |
| 20260510151026 | 55 | 37 | 1.7 | 4.3 | 0.00 | 0.00 | 0.00 | 64 | 1021.9 |
| 20260510150524 | 55 | 31 | 1.7 | 4.3 | 0.00 | 0.00 | 0.00 | 65 | 1022.0 |
| 20260510150046 | 54 | 67 | 1.7 | 4.3 | 0.00 | 0.00 | 0.00 | 66 | 1022.1 |
| 20260510145530 | 53 | 60 | 1.7 | 6.1 | 0.00 | 0.00 | 0.00 | 66 | 1022.1 |
| 20260510145026 | 53 | 69 | 2.6 | 6.1 | 0.00 | 0.00 | 0.00 | 68 | 1022.2 |
| 20260510144554 | 53 | 35 | 1.7 | 5.2 | 0.00 | 0.00 | 0.00 | 66 | 1022.1 |
| 20260510144027 | 53 | 33 | 1.7 | 5.2 | 0.00 | 0.00 | 0.00 | 68 | 1022.1 |
| 20260510143524 | 53 | 58 | 1.7 | 5.2 | 0.00 | 0.00 | 0.00 | 68 | 1022.2 |
| 20260510143037 | 52 | 82 | 0.0 | 2.6 | 0.00 | 0.00 | 0.00 | 70 | 1022.1 |
| 20260510142529 | 52 | 61 | 0.9 | 2.6 | 0.00 | 0.00 | 0.00 | 70 | 1022.2 |
| 20260510142027 | 51 | 0 | 0.0 | 0.0 | 0.00 | 0.00 | 0.00 | 70 | 1022.1 |
| 20260510141536 | 51 | 0 | 0.0 | 0.0 | 0.00 | 0.00 | 0.00 | 71 | 1022.3 |
| 20260510141028 | 50 | 0 | 0.0 | 0.0 | 0.00 | 0.00 | 0.00 | 71 | 1022.2 |
| 20260510140527 | 50 | 0 | 0.0 | 0.0 | 0.00 | 0.00 | 0.00 | 72 | 1022.2 |
| 20260510140037 | 50 | 0 | 0.0 | 0.0 | 0.00 | 0.00 | 0.00 | 73 | 1022.3 |
| 20260510135527 | 50 | 0 | 0.0 | 0.0 | 0.00 | 0.00 | 0.00 | 73 | 1022.3 |
| 20260510135026 | 50 | 0 | 0.0 | 0.0 | 0.00 | 0.00 | 0.00 | 74 | 1022.3 |
| 20260510134552 | 49 | 0 | 0.0 | 0.0 | 0.00 | 0.00 | 0.00 | 75 | 1022.4 |
| 20260510134026 | 48 | 0 | 0.0 | 0.0 | 0.00 | 0.00 | 0.00 | 78 | 1022.4 |
| 20260510133527 | 47 | 0 | 0.0 | 0.0 | 0.00 | 0.00 | 0.00 | 82 | 1022.4 |
| 20260510133038 | 46 | 0 | 0.0 | 0.0 | 0.00 | 0.00 | 0.00 | 85 | 1022.3 |
| 20260510132526 | 44 | 0 | 0.0 | 0.0 | 0.00 | 0.00 | 0.00 | 87 | 1022.4 |
| 20260510132026 | 43 | 0 | 0.0 | 0.0 | 0.00 | 0.00 | 0.00 | 89 | 1022.3 |
| 20260510131536 | 42 | 0 | 0.0 | 0.0 | 0.00 | 0.00 | 0.00 | 89 | 1022.3 |
| 20260510131026 | 41 | 0 | 0.0 | 0.0 | 0.00 | 0.00 | 0.00 | 90 | 1022.2 |
| 20260510130525 | 41 | 0 | 0.0 | 0.0 | 0.00 | 0.00 | 0.00 | 90 | 1022.2 |
| 20260510130037 | 40 | 0 | 0.0 | 0.0 | 0.00 | 0.00 | 0.00 | 89 | 1022.2 |
| 20260510125523 | 40 | 0 | 0.0 | 0.0 | 0.00 | 0.00 | 0.00 | 90 | 1022.1 |
| 20260510125024 | 39 | 0 | 0.0 | 0.0 | 0.00 | 0.00 | 0.00 | 90 | 1022.1 |
| 20260510124538 | 39 | 0 | 0.0 | 0.0 | 0.00 | 0.00 | 0.00 | 90 | 1022.1 |
| 20260510124024 | 39 | 0 | 0.0 | 0.0 | 0.00 | 0.00 | 0.00 | 90 | 1022.1 |
| 20260510123524 | 38 | 0 | 0.0 | 0.0 | 0.00 | 0.00 | 0.00 | 90 | 1022.0 |
| 20260510123037 | 38 | 0 | 0.0 | 0.0 | 0.00 | 0.00 | 0.00 | 89 | 1022.0 |
| 20260510122524 | 38 | 0 | 0.0 | 0.0 | 0.00 | 0.00 | 0.00 | 89 | 1021.9 |
| 20260510122026 | 38 | 0 | 0.0 | 0.0 | 0.00 | 0.00 | 0.00 | 90 | 1021.8 |
| 20260510121537 | 38 | 0 | 0.0 | 0.0 | 0.00 | 0.00 | 0.00 | 90 | 1021.8 |
| 20260510121025 | 38 | 0 | 0.0 | 0.0 | 0.00 | 0.00 | 0.00 | 89 | 1021.8 |
| 20260510120527 | 38 | 0 | 0.0 | 0.0 | 0.00 | 0.00 | 0.00 | 89 | 1021.8 |
| 20260510120037 | 38 | 0 | 0.0 | 0.0 | 0.00 | 0.00 | 0.00 | 90 | 1021.7 |
| 20260510115526 | 38 | 0 | 0.0 | 0.0 | 0.00 | 0.01 | 0.00 | 89 | 1021.8 |
| 20260510115027 | 38 | 0 | 0.0 | 0.0 | 0.00 | 0.01 | 0.00 | 89 | 1021.9 |
| 20260510114537 | 38 | 0 | 0.0 | 0.0 | 0.00 | 0.01 | 0.00 | 89 | 1021.9 |
| 20260510114024 | 38 | 0 | 0.0 | 0.0 | 0.00 | 0.01 | 0.00 | 88 | 1021.8 |
| 20260510113523 | 38 | 0 | 0.0 | 0.0 | 0.00 | 0.01 | 0.00 | 88 | 1021.7 |
| 20260510113041 | 38 | 0 | 0.0 | 0.0 | 0.00 | 0.01 | 0.00 | 88 | 1021.7 |
| 20260510112523 | 38 | 0 | 0.0 | 0.9 | 0.00 | 0.01 | 0.00 | 88 | 1021.8 |
| 20260510112023 | 38 | 0 | 0.0 | 0.9 | 0.00 | 0.01 | 0.00 | 88 | 1021.8 |
| 20260510111539 | 38 | 0 | 0.0 | 0.9 | 0.00 | 0.01 | 0.00 | 88 | 1021.7 |
| 20260510111023 | 38 | 0 | 0.0 | 2.6 | 0.00 | 0.01 | 0.00 | 87 | 1021.8 |
| 20260510110527 | 38 | 0 | 0.9 | 2.6 | 0.00 | 0.01 | 0.00 | 87 | 1021.7 |
| 20260510110040 | 39 | 342 | 0.9 | 2.6 | 0.00 | 0.01 | 0.00 | 87 | 1021.8 |
| 20260510105526 | 39 | 0 | 0.0 | 0.0 | 0.00 | 0.05 | 0.00 | 87 | 1021.8 |
| 20260510105024 | 39 | 0 | 0.0 | 0.0 | 0.00 | 0.05 | 0.00 | 87 | 1021.7 |
| 20260510104537 | 39 | 0 | 0.0 | 0.9 | 0.00 | 0.05 | 0.00 | 87 | 1021.8 |
| 20260510104027 | 39 | 0 | 0.0 | 1.7 | 0.00 | 0.05 | 0.00 | 87 | 1021.7 |
| 20260510103523 | 39 | 0 | 0.0 | 1.7 | 0.00 | 0.05 | 0.00 | 86 | 1021.7 |
| 20260510103043 | 39 | 213 | 0.9 | 1.7 | 0.00 | 0.05 | 0.00 | 86 | 1021.7 |
| 20260510102530 | 40 | 271 | 0.0 | 1.7 | 0.00 | 0.05 | 0.00 | 86 | 1021.7 |
| 20260510102028 | 40 | 271 | 0.0 | 2.6 | 0.00 | 0.05 | 0.00 | 86 | 1021.7 |
| 20260510101537 | 40 | 0 | 0.9 | 2.6 | 0.00 | 0.05 | 0.00 | 86 | 1021.7 |
| 20260510101023 | 40 | 285 | 0.9 | 1.7 | 0.00 | 0.05 | 0.00 | 86 | 1021.7 |
| 20260510100526 | 40 | 285 | 0.0 | 1.7 | 0.00 | 0.05 | 0.00 | 86 | 1021.7 |
| 20260510100047 | 40 | 338 | 0.0 | 0.9 | 0.00 | 0.05 | 0.00 | 86 | 1021.8 |
| 20260510095523 | 40 | 0 | 0.0 | 0.0 | 0.00 | 0.05 | 0.00 | 86 | 1021.7 |
| 20260510095024 | 41 | 0 | 0.0 | 0.0 | 0.00 | 0.05 | 0.00 | 86 | 1021.7 |
| 20260510094544 | 41 | 0 | 0.0 | 0.0 | 0.00 | 0.05 | 0.00 | 86 | 1021.7 |
| 20260510094024 | 41 | 0 | 0.0 | 0.0 | 0.00 | 0.05 | 0.00 | 86 | 1021.6 |
| 20260510093524 | 41 | 0 | 0.0 | 0.0 | 0.00 | 0.05 | 0.00 | 85 | 1021.6 |
| 20260510093036 | 41 | 0 | 0.0 | 0.0 | 0.00 | 0.05 | 0.00 | 84 | 1021.5 |
| 20260510092525 | 41 | 0 | 0.0 | 0.0 | 0.00 | 0.05 | 0.00 | 84 | 1021.6 |
| 20260510092026 | 41 | 0 | 0.0 | 0.0 | 0.00 | 0.05 | 0.00 | 84 | 1021.6 |
| 20260510091536 | 41 | 0 | 0.0 | 0.0 | 0.00 | 0.05 | 0.00 | 83 | 1021.4 |
| 20260510091025 | 42 | 0 | 0.0 | 0.0 | 0.00 | 0.05 | 0.00 | 82 | 1021.5 |
| 20260510090523 | 42 | 0 | 0.0 | 1.7 | 0.00 | 0.05 | 0.00 | 82 | 1021.5 |
| 20260510090040 | 42 | 0 | 0.0 | 2.6 | 0.00 | 0.05 | 0.00 | 81 | 1021.5 |
| 20260510085527 | 42 | 338 | 0.9 | 2.6 | 0.00 | 0.05 | 0.00 | 81 | 1021.6 |
| 20260510085026 | 43 | 338 | 0.9 | 2.6 | 0.00 | 0.05 | 0.00 | 79 | 1021.5 |
| 20260510084552 | 43 | 198 | 0.0 | 2.6 | 0.00 | 0.05 | 0.00 | 79 | 1021.5 |
| 20260510084023 | 44 | 0 | 0.0 | 2.6 | 0.00 | 0.05 | 0.00 | 80 | 1021.5 |
| 20260510083527 | 44 | 198 | 0.9 | 3.5 | 0.00 | 0.05 | 0.00 | 80 | 1021.5 |
| 20260510083041 | 44 | 212 | 0.9 | 3.5 | 0.00 | 0.05 | 0.00 | 80 | 1021.5 |
| 20260510082524 | 44 | 212 | 0.9 | 4.3 | 0.00 | 0.05 | 0.00 | 80 | 1021.5 |
| 20260510082024 | 44 | 209 | 1.7 | 4.3 | 0.00 | 0.05 | 0.00 | 80 | 1021.4 |
| 20260510081537 | 44 | 204 | 1.7 | 4.3 | 0.00 | 0.05 | 0.00 | 79 | 1021.5 |
| 20260510081024 | 45 | 203 | 1.7 | 4.3 | 0.00 | 0.05 | 0.00 | 79 | 1021.4 |
| 20260510080530 | 45 | 191 | 1.7 | 3.5 | 0.00 | 0.05 | 0.00 | 78 | 1021.3 |
| 20260510080036 | 45 | 191 | 1.7 | 3.5 | 0.00 | 0.05 | 0.00 | 79 | 1021.4 |
| 20260510075527 | 45 | 188 | 0.0 | 2.6 | 0.00 | 0.05 | 0.00 | 79 | 1021.3 |
| 20260510075023 | 45 | 0 | 0.0 | 2.6 | 0.00 | 0.05 | 0.00 | 79 | 1021.3 |
| 20260510074537 | 45 | 188 | 1.7 | 2.6 | 0.00 | 0.05 | 0.00 | 79 | 1021.3 |
| 20260510074025 | 45 | 188 | 0.9 | 2.6 | 0.00 | 0.05 | 0.00 | 79 | 1021.4 |
| 20260510073523 | 45 | 179 | 0.9 | 3.5 | 0.00 | 0.05 | 0.00 | 79 | 1021.4 |
| 20260510073047 | 45 | 179 | 1.7 | 3.5 | 0.00 | 0.05 | 0.00 | 79 | 1021.3 |
| 20260510072523 | 45 | 162 | 0.9 | 2.6 | 0.00 | 0.05 | 0.00 | 80 | 1021.4 |
| 20260510072026 | 45 | 0 | 0.0 | 0.9 | 0.00 | 0.05 | 0.00 | 80 | 1021.3 |
| 20260510071548 | 45 | 0 | 0.0 | 2.6 | 0.00 | 0.05 | 0.00 | 80 | 1021.2 |
| 20260510071023 | 46 | 0 | 0.0 | 2.6 | 0.00 | 0.05 | 0.00 | 79 | 1021.3 |
| 20260510070523 | 46 | 240 | 0.9 | 2.6 | 0.00 | 0.05 | 0.00 | 78 | 1021.3 |
| 20260510070041 | 46 | 241 | 0.0 | 1.7 | 0.00 | 0.05 | 0.00 | 78 | 1021.2 |
| 20260510065524 | 46 | 0 | 0.0 | 0.0 | 0.00 | 0.05 | 0.00 | 78 | 1021.3 |
| 20260510065026 | 47 | 0 | 0.0 | 0.0 | 0.00 | 0.05 | 0.00 | 77 | 1021.1 |
| 20260510064545 | 47 | 0 | 0.0 | 0.9 | 0.00 | 0.05 | 0.00 | 77 | 1021.1 |
| 20260510064025 | 47 | 0 | 0.0 | 2.6 | 0.00 | 0.05 | 0.00 | 77 | 1021.0 |
| 20260510063528 | 47 | 241 | 0.0 | 2.6 | 0.00 | 0.05 | 0.00 | 77 | 1021.0 |
| 20260510063038 | 47 | 241 | 0.9 | 2.6 | 0.00 | 0.05 | 0.00 | 76 | 1020.9 |
| 20260510062525 | 48 | 241 | 0.9 | 2.6 | 0.00 | 0.05 | 0.00 | 75 | 1020.9 |
| 20260510062028 | 48 | 241 | 0.0 | 2.6 | 0.00 | 0.05 | 0.00 | 75 | 1020.9 |
| 20260510061538 | 48 | 236 | 0.0 | 2.6 | 0.00 | 0.05 | 0.00 | 74 | 1020.9 |
| 20260510061024 | 48 | 0 | 0.0 | 3.5 | 0.00 | 0.05 | 0.00 | 74 | 1020.8 |
| 20260510060525 | 49 | 239 | 0.9 | 3.5 | 0.00 | 0.05 | 0.00 | 75 | 1020.9 |
| 20260510060046 | 48 | 215 | 0.9 | 3.5 | 0.00 | 0.05 | 0.00 | 74 | 1020.9 |
| 20260510055524 | 49 | 231 | 0.9 | 1.7 | 0.00 | 0.05 | 0.05 | 74 | 1020.7 |
| 20260510055024 | 49 | 230 | 0.0 | 1.7 | 0.00 | 0.05 | 0.05 | 73 | 1020.8 |
| 20260510054537 | 49 | 230 | 0.0 | 2.6 | 0.00 | 0.05 | 0.05 | 72 | 1020.8 |
| 20260510054025 | 50 | 230 | 0.0 | 2.6 | 0.00 | 0.05 | 0.05 | 71 | 1020.8 |
| 20260510053525 | 50 | 230 | 0.0 | 2.6 | 0.00 | 0.05 | 0.05 | 71 | 1020.8 |
| 20260510053041 | 51 | 230 | 0.9 | 5.2 | 0.00 | 0.05 | 0.05 | 70 | 1020.8 |
| 20260510052524 | 51 | 233 | 1.7 | 5.2 | 0.00 | 0.05 | 0.05 | 70 | 1020.8 |
| 20260510052024 | 51 | 246 | 0.9 | 2.6 | 0.00 | 0.05 | 0.05 | 69 | 1020.8 |
| 20260510051542 | 51 | 238 | 0.9 | 2.6 | 0.00 | 0.05 | 0.05 | 70 | 1020.7 |
| 20260510051024 | 51 | 224 | 0.9 | 3.5 | 0.00 | 0.05 | 0.05 | 69 | 1020.7 |
| 20260510050524 | 51 | 202 | 0.9 | 3.5 | 0.00 | 0.05 | 0.05 | 70 | 1020.6 |
| 20260510050040 | 51 | 229 | 0.9 | 2.6 | 0.00 | 0.05 | 0.05 | 69 | 1020.7 |
| 20260510045524 | 52 | 219 | 0.9 | 2.6 | 0.00 | 0.05 | 0.05 | 69 | 1020.7 |
| 20260510045026 | 52 | 219 | 0.9 | 2.6 | 0.00 | 0.05 | 0.05 | 68 | 1020.6 |
| 20260510044540 | 52 | 257 | 0.0 | 2.6 | 0.00 | 0.05 | 0.05 | 68 | 1020.6 |
| 20260510044026 | 52 | 257 | 0.9 | 2.6 | 0.00 | 0.05 | 0.05 | 68 | 1020.6 |
| 20260510043526 | 52 | 80 | 0.0 | 1.7 | 0.00 | 0.05 | 0.05 | 68 | 1020.6 |
| 20260510043044 | 53 | 0 | 0.0 | 1.7 | 0.00 | 0.05 | 0.05 | 67 | 1020.6 |
| 20260510042524 | 53 | 79 | 0.0 | 1.7 | 0.00 | 0.05 | 0.05 | 66 | 1020.6 |
| 20260510042026 | 53 | 93 | 0.9 | 2.6 | 0.00 | 0.05 | 0.05 | 66 | 1020.6 |
| 20260510041549 | 53 | 93 | 0.0 | 2.6 | 0.00 | 0.05 | 0.05 | 65 | 1020.5 |
| 20260510041025 | 53 | 105 | 0.9 | 2.6 | 0.00 | 0.05 | 0.05 | 65 | 1020.4 |
| 20260510040527 | 52 | 0 | 0.0 | 1.7 | 0.00 | 0.05 | 0.05 | 66 | 1020.4 |
| 20260510040036 | 52 | 0 | 0.0 | 1.7 | 0.00 | 0.05 | 0.05 | 66 | 1020.5 |
| 20260510035528 | 52 | 106 | 0.9 | 3.5 | 0.00 | 0.05 | 0.05 | 67 | 1020.4 |
| 20260510035026 | 53 | 106 | 0.9 | 3.5 | 0.00 | 0.05 | 0.05 | 67 | 1020.4 |
| 20260510034540 | 53 | 106 | 0.0 | 2.6 | 0.00 | 0.05 | 0.05 | 67 | 1020.2 |
| 20260510034027 | 53 | 0 | 0.0 | 2.6 | 0.00 | 0.05 | 0.05 | 64 | 1020.3 |
| 20260510033524 | 54 | 0 | 0.0 | 5.2 | 0.00 | 0.05 | 0.05 | 64 | 1020.1 |
| 20260510033037 | 54 | 44 | 1.7 | 5.2 | 0.00 | 0.05 | 0.05 | 63 | 1020.0 |
| 20260510032523 | 55 | 40 | 2.6 | 7.0 | 0.00 | 0.05 | 0.05 | 62 | 1019.9 |
| 20260510032023 | 55 | 29 | 2.6 | 7.0 | 0.00 | 0.05 | 0.05 | 62 | 1019.8 |
| 20260510031537 | 55 | 41 | 3.5 | 7.0 | 0.00 | 0.05 | 0.05 | 62 | 1019.8 |
| 20260510031024 | 55 | 25 | 1.7 | 7.8 | 0.00 | 0.05 | 0.05 | 62 | 1019.8 |
| 20260510030527 | 55 | 78 | 1.7 | 7.8 | 0.00 | 0.05 | 0.05 | 61 | 1019.7 |
| 20260510030037 | 55 | 30 | 1.7 | 6.1 | 0.00 | 0.05 | 0.05 | 62 | 1019.7 |
| 20260510025523 | 55 | 66 | 2.6 | 6.1 | 0.00 | 0.06 | 0.05 | 62 | 1019.5 |
| 20260510025026 | 55 | 63 | 2.6 | 7.0 | 0.00 | 0.06 | 0.05 | 62 | 1019.4 |
| 20260510024547 | 55 | 30 | 2.6 | 7.0 | 0.00 | 0.06 | 0.05 | 62 | 1019.4 |
| 20260510024026 | 56 | 49 | 3.5 | 7.8 | 0.00 | 0.06 | 0.05 | 61 | 1019.3 |
| 20260510023523 | 56 | 35 | 4.3 | 7.8 | 0.00 | 0.06 | 0.05 | 61 | 1019.2 |
| 20260510023037 | 56 | 54 | 3.5 | 7.8 | 0.00 | 0.06 | 0.05 | 61 | 1019.2 |
| 20260510022526 | 56 | 72 | 3.5 | 7.8 | 0.00 | 0.06 | 0.05 | 61 | 1019.0 |
| 20260510022023 | 57 | 35 | 3.5 | 11.3 | 0.00 | 0.06 | 0.05 | 61 | 1018.9 |
| 20260510021537 | 57 | 31 | 4.3 | 11.3 | 0.00 | 0.06 | 0.05 | 60 | 1019.0 |
| 20260510021022 | 57 | 27 | 5.2 | 10.4 | 0.00 | 0.06 | 0.05 | 59 | 1018.9 |
| 20260510020522 | 58 | 33 | 5.2 | 10.4 | 0.00 | 0.06 | 0.05 | 58 | 1018.8 |
| 20260510020049 | 59 | 37 | 4.3 | 8.7 | 0.00 | 0.06 | 0.05 | 57 | 1018.7 |
| 20260510015523 | 59 | 52 | 5.2 | 8.7 | 0.00 | 0.06 | 0.05 | 57 | 1018.6 |
| 20260510015023 | 59 | 11 | 4.3 | 7.8 | 0.00 | 0.06 | 0.05 | 56 | 1018.5 |
| 20260510014538 | 60 | 46 | 3.5 | 10.4 | 0.00 | 0.06 | 0.05 | 54 | 1018.5 |
| 20260510014023 | 61 | 25 | 1.7 | 10.4 | 0.00 | 0.06 | 0.05 | 53 | 1018.5 |
| 20260510013523 | 61 | 91 | 6.1 | 9.6 | 0.00 | 0.06 | 0.05 | 52 | 1018.5 |
| 20260510013046 | 62 | 32 | 5.2 | 9.6 | 0.00 | 0.06 | 0.05 | 49 | 1018.4 |
| 20260510012523 | 63 | 15 | 3.5 | 10.4 | 0.00 | 0.06 | 0.05 | 42 | 1018.2 |
| 20260510012023 | 63 | 328 | 4.3 | 10.4 | 0.00 | 0.06 | 0.05 | 40 | 1018.0 |
| 20260510011539 | 63 | 15 | 5.2 | 10.4 | 0.00 | 0.06 | 0.05 | 41 | 1018.2 |
| 20260510011022 | 63 | 360 | 2.6 | 10.4 | 0.00 | 0.06 | 0.05 | 44 | 1018.2 |
| 20260510010522 | 63 | 11 | 2.6 | 10.4 | 0.00 | 0.06 | 0.05 | 48 | 1018.0 |
| 20260510010055 | 64 | 63 | 5.2 | 12.2 | 0.00 | 0.06 | 0.05 | 47 | 1018.0 |
| 20260510005527 | 64 | 1 | 4.3 | 12.2 | 0.00 | 0.06 | 0.05 | 42 | 1018.1 |
| 20260510005022 | 64 | 40 | 4.3 | 10.4 | 0.00 | 0.06 | 0.05 | 44 | 1018.0 |
| 20260510004536 | 64 | 22 | 6.1 | 11.3 | 0.00 | 0.06 | 0.05 | 44 | 1017.8 |
| 20260510004027 | 64 | 340 | 5.2 | 12.2 | 0.00 | 0.06 | 0.05 | 41 | 1017.9 |
| 20260510003525 | 63 | 336 | 6.1 | 12.2 | 0.00 | 0.06 | 0.05 | 41 | 1017.9 |
| 20260510003038 | 64 | 307 | 5.2 | 13.9 | 0.00 | 0.06 | 0.05 | 41 | 1017.8 |
| 20260510002523 | 64 | 341 | 7.0 | 13.9 | 0.00 | 0.06 | 0.05 | 42 | 1017.9 |
| 20260510002023 | 64 | 359 | 6.1 | 13.9 | 0.00 | 0.06 | 0.05 | 41 | 1017.7 |
| 20260510001538 | 63 | 348 | 5.2 | 13.0 | 0.00 | 0.06 | 0.05 | 44 | 1017.8 |
| 20260510001025 | 62 | 348 | 5.2 | 13.0 | 0.00 | 0.06 | 0.05 | 44 | 1017.7 |
| 20260510000528 | 63 | 352 | 6.1 | 11.3 | 0.00 | 0.06 | 0.05 | 43 | 1017.7 |
| 20260510000041 | 62 | 336 | 6.1 | 11.3 | 0.00 | 0.06 | 0.05 | 44 | 1017.7 |
| 20260509235524 | 62 | 335 | 6.1 | 17.4 | 0.00 | 0.06 | 0.05 | 45 | 1017.7 |
| 20260509235023 | 62 | 324 | 7.8 | 17.4 | 0.00 | 0.06 | 0.05 | 44 | 1017.6 |
| 20260509234559 | 62 | 302 | 4.3 | 16.5 | 0.00 | 0.06 | 0.05 | 45 | 1017.6 |
| 20260509234027 | 62 | 12 | 5.2 | 16.5 | 0.00 | 0.06 | 0.05 | 44 | 1017.6 |
| 20260509233523 | 62 | 350 | 6.1 | 15.6 | 0.00 | 0.06 | 0.05 | 45 | 1017.4 |
| 20260509233040 | 62 | 37 | 7.0 | 15.6 | 0.00 | 0.06 | 0.05 | 44 | 1017.6 |